[TLELIST] Current TLEs


Subject: [TLELIST] Current TLEs
Date: October 1st 2022

HST
1 20580U 90037B 22273.92571675 .00003588 00000-0 19899-3 0 9995 2 20580 28.4691 189.7432 0002710 92.3604 338.5365 15.10943729582183 ISS (ZARYA)
1 25544U 98067A 22274.19759479 .00014979 00000-0 26577-3 0 9998 2 25544 51.6446 171.3620 0002537 314.8685 180.8010 15.50443271361628 CXO
1 25867U 99040B 22276.46843291 .00001072 00000-0 00000+0 0 9995 2 25867 42.3970 226.0198 8918143 239.9523 0.5944 0.37813170 23366


These 2-Line Elements (TLEs) are direct from DoD/ USSTRATCOM/ US Space Command with permission.

Updates are provided automatically daily.

By receiving this email, you agree not to transfer any data or information received under this agreement, including the analysis of tracking data, to any other entity without the express approval of the AUS-CITY Forum Admins and/ or DoD/ USSTRATCOM/ US Space Command.

       David Cottle
       Director Of Engineering
       IDB Communications



<< Previous: [TLELIST] Current TLEs

| Archive Index |

 

(archive rss , atom rss/atom )

Forward to a Friend




As the final step, please type in the string of letters that you see in the below image into the text box:

this list's archives:


International Space Station (ISS) / Hubble Space Telescope (HST) / Chandra X-Ray Observatory Orbital Data via EMAIL
Subscribe to [TLELIST]

* Required